Retour au catalogue

STARLINK-5627

ActifCommunicationsVLEO
NORAD 55364·PAYLOAD·🇺🇸 United States

Lancé Jan 26, 2023 depuis Cape Canaveral Space Force Station

Loading…

Prochains Passages (prochaines 24 heures)

TLE

FraisSource: CelesTrak SupGP

Époque: Sep 14, 2026, 21:56 UTC

1 55364C 23013AK  26257.91437500 -.00029316  00000+0 -10618-2 0  2570
2 55364  43.0010 318.1561 0001597 265.3670  77.0230 15.27593125    19

Suivez STARLINK-5627 en temps réel avec AllMySat

Download on the App Store